Location: Unspecified
(50.7693°N, 0.0000°E)
Time: 15:47:02
(UTC+00:00)

Vanguard 2 - Pass Details

Date: 20 June 2019
Orbit: 553 x 2938 km, 32.9° (Epoch: 16 July)

Event Time Altitude Azimuth Distance (km) Brightness Sun altitude
Rises 13:37:52 0° 258° (WSW) 4,692 11.9 56.9°
Reaches altitude 10° 13:41:39 10° 243° (WSW) 4,083 11.9 56.5°
Maximum altitude 13:49:27 21° 200° (SSW) 3,898 12.0 55.6°
Drops below altitude 10° 13:59:32 10° 159° (SSE) 5,401 12.1 54.4°
Sets 14:05:44 0° 146° (SSE) 6,658 12.3 53.6°
